Time,TemperatureF,DewpointF,PressureIn,WindDirection,WindDirectionDegrees,WindSpeedMPH,WindSpeedGustMPH,Humidity,HourlyPrecipIn,Conditions,Clouds,dailyrainin,SoftwareType,DateUTC
2013-01-22 00:05:00,42.5,3.1,30.14,South,180,0.0,0.0,19,0.00,,,0.00,Wunderground v.1.15,2013-01-22 08:05:00,
2013-01-22 00:15:00,42.3,1.7,30.14,South,180,0.0,0.0,18,0.00,,,0.00,Wunderground v.1.15,2013-01-22 08:15:00,
2013-01-22 00:20:00,42.6,2.0,30.14,South,180,0.0,0.0,18,0.00,,,0.00,Wunderground v.1.15,2013-01-22 08:20:00,
2013-01-22 00:30:00,42.5,1.9,30.14,South,180,0.0,0.0,18,0.00,,,0.00,Wunderground v.1.15,2013-01-22 08:30:00,
2013-01-22 00:35:00,42.3,1.7,30.14,South,180,0.0,0.0,18,0.00,,,0.00,Wunderground v.1.15,2013-01-22 08:35:00,
2013-01-22 00:40:00,42.8,2.1,30.14,South,180,0.0,0.0,18,0.00,,,0.00,Wunderground v.1.15,2013-01-22 08:40:00,
2013-01-22 00:50:00,42.3,1.7,30.14,South,180,0.0,0.0,18,0.00,,,0.00,Wunderground v.1.15,2013-01-22 08:50:00,
2013-01-22 01:00:00,42.5,1.9,30.14,South,179,0.0,0.0,18,0.00,,,0.00,Wunderground v.1.15,2013-01-22 09:00:00,
2013-01-22 01:05:00,42.6,2.0,30.14,South,179,0.0,0.0,18,0.00,,,0.00,Wunderground v.1.15,2013-01-22 09:05:00,
2013-01-22 01:15:00,42.3,1.7,30.13,South,180,0.0,0.0,18,0.00,,,0.00,Wunderground v.1.15,2013-01-22 09:15:00,
2013-01-22 01:25:00,41.2,2.0,30.13,South,179,0.0,0.0,19,0.00,,,0.00,Wunderground v.1.15,2013-01-22 09:25:00,
2013-01-22 01:30:00,40.9,1.7,30.14,South,179,0.0,0.0,19,0.00,,,0.00,Wunderground v.1.15,2013-01-22 09:30:00,
2013-01-22 01:40:00,39.9,2.0,30.14,South,180,0.0,0.0,20,0.00,,,0.00,Wunderground v.1.15,2013-01-22 09:40:00,
2013-01-22 01:50:00,40.3,1.2,30.14,South,180,0.0,0.0,19,0.00,,,0.00,Wunderground v.1.15,2013-01-22 09:50:00,
2013-01-22 01:55:00,40.6,1.5,30.14,South,180,0.0,0.0,19,0.00,,,0.00,Wunderground v.1.15,2013-01-22 09:55:00,
2013-01-22 02:05:00,40.5,1.4,30.14,South,180,0.0,0.0,19,0.00,,,0.00,Wunderground v.1.15,2013-01-22 10:05:00,
2013-01-22 02:15:00,40.3,3.4,30.13,South,180,0.0,0.0,21,0.00,,,0.00,Wunderground v.1.15,2013-01-22 10:15:00,
2013-01-22 02:20:00,40.3,3.4,30.13,South,180,0.0,0.0,21,0.00,,,0.00,Wunderground v.1.15,2013-01-22 10:20:00,
2013-01-22 02:30:00,40.3,2.3,30.13,South,179,0.0,0.0,20,0.00,,,0.00,Wunderground v.1.15,2013-01-22 10:30:00,
2013-01-22 02:40:00,40.1,1.1,30.13,South,178,0.0,0.0,19,0.00,,,0.00,Wunderground v.1.15,2013-01-22 10:40:00,
2013-01-22 02:45:00,39.8,1.9,30.13,South,178,0.0,0.0,20,0.00,,,0.00,Wunderground v.1.15,2013-01-22 10:45:00,
2013-01-22 02:55:00,39.6,1.7,30.13,South,178,0.0,0.0,20,0.00,,,0.00,Wunderground v.1.15,2013-01-22 10:55:00,
2013-01-22 03:00:00,39.9,2.0,30.12,South,178,0.0,0.0,20,0.00,,,0.00,Wunderground v.1.15,2013-01-22 11:00:00,
2013-01-22 03:05:00,40.2,1.1,30.12,South,178,0.0,0.0,19,0.00,,,0.00,Wunderground v.1.15,2013-01-22 11:05:00,
2013-01-22 03:10:00,40.6,1.5,30.12,South,178,0.0,0.0,19,0.00,,,0.00,Wunderground v.1.15,2013-01-22 11:10:00,
2013-01-22 03:20:00,41.6,1.1,30.12,South,178,0.0,0.0,18,0.00,,,0.00,Wunderground v.1.15,2013-01-22 11:20:00,
2013-01-22 03:25:00,41.8,1.3,30.12,South,178,0.0,0.0,18,0.00,,,0.00,Wunderground v.1.15,2013-01-22 11:25:00,
2013-01-22 03:30:00,41.8,2.5,30.12,South,178,0.0,0.0,19,0.00,,,0.00,Wunderground v.1.15,2013-01-22 11:30:00,
2013-01-22 03:40:00,41.5,2.2,30.12,South,178,0.0,0.0,19,0.00,,,0.00,Wunderground v.1.15,2013-01-22 11:40:00,
2013-01-22 03:45:00,41.8,2.5,30.11,South,178,0.0,0.0,19,0.00,,,0.00,Wunderground v.1.15,2013-01-22 11:45:00,
2013-01-22 03:55:00,43.2,2.5,30.11,South,179,0.0,0.0,18,0.00,,,0.00,Wunderground v.1.15,2013-01-22 11:55:00,
2013-01-22 04:00:00,43.3,2.6,30.11,South,179,0.0,0.0,18,0.00,,,0.00,Wunderground v.1.15,2013-01-22 12:00:00,
2013-01-22 04:05:00,43.2,2.5,30.11,South,179,0.0,0.0,18,0.00,,,0.00,Wunderground v.1.15,2013-01-22 12:05:00,
2013-01-22 04:15:00,42.2,2.8,30.11,South,179,0.0,0.0,19,0.00,,,0.00,Wunderground v.1.15,2013-01-22 12:15:00,
2013-01-22 04:25:00,41.3,2.1,30.11,South,179,0.0,0.0,19,0.00,,,0.00,Wunderground v.1.15,2013-01-22 12:25:00,
2013-01-22 04:30:00,41.1,1.9,30.11,South,179,0.0,0.0,19,0.00,,,0.00,Wunderground v.1.15,2013-01-22 12:30:00,
2013-01-22 04:35:00,41.1,1.9,30.11,South,179,0.0,0.0,19,0.00,,,0.00,Wunderground v.1.15,2013-01-22 12:35:00,
2013-01-22 04:45:00,43.1,3.6,30.12,South,179,0.0,0.0,19,0.00,,,0.00,Wunderground v.1.15,2013-01-22 12:45:00,
2013-01-22 04:50:00,43.1,3.6,30.12,South,179,0.0,0.0,19,0.00,,,0.00,Wunderground v.1.15,2013-01-22 12:50:00,
2013-01-22 05:00:00,44.1,3.2,30.12,South,178,0.0,0.0,18,0.00,,,0.00,Wunderground v.1.15,2013-01-22 13:00:00,
2013-01-22 05:05:00,43.5,2.7,30.12,South,178,0.0,0.0,18,0.00,,,0.00,Wunderground v.1.15,2013-01-22 13:05:00,
2013-01-22 05:15:00,42.5,3.1,30.12,South,178,0.0,0.0,19,0.00,,,0.00,Wunderground v.1.15,2013-01-22 13:15:00,
2013-01-22 05:25:00,41.2,3.1,30.12,South,178,0.0,0.0,20,0.00,,,0.00,Wunderground v.1.15,2013-01-22 13:25:00,
2013-01-22 05:30:00,41.1,3.0,30.12,South,178,0.0,0.0,20,0.00,,,0.00,Wunderground v.1.15,2013-01-22 13:30:00,
2013-01-22 05:40:00,41.3,3.2,30.12,South,178,0.0,0.0,20,0.00,,,0.00,Wunderground v.1.15,2013-01-22 13:40:00,
2013-01-22 05:45:00,40.9,2.8,30.13,West,270,0.0,0.0,20,0.00,,,0.00,Wunderground v.1.15,2013-01-22 13:45:00,
2013-01-22 05:55:00,39.3,3.6,30.13,West,270,0.0,0.0,22,0.00,,,0.00,Wunderground v.1.15,2013-01-22 13:55:00,
2013-01-22 06:00:00,40.6,4.7,30.13,West,267,0.0,0.0,22,0.00,,,0.00,Wunderground v.1.15,2013-01-22 14:00:00,
2013-01-22 06:05:00,42.5,5.2,30.13,WSW,242,0.0,0.0,21,0.00,,,0.00,Wunderground v.1.15,2013-01-22 14:05:00,
2013-01-22 06:15:00,42.6,5.3,30.14,WSW,242,0.0,0.0,21,0.00,,,0.00,Wunderground v.1.15,2013-01-22 14:15:00,
2013-01-22 06:25:00,43.2,4.8,30.14,WSW,242,0.0,0.0,20,0.00,,,0.00,Wunderground v.1.15,2013-01-22 14:25:00,
2013-01-22 06:30:00,42.8,5.5,30.14,WSW,242,0.0,0.0,21,0.00,,,0.00,Wunderground v.1.15,2013-01-22 14:30:00,
2013-01-22 06:35:00,42.1,4.9,30.14,WSW,242,0.0,0.0,21,0.00,,,0.00,Wunderground v.1.15,2013-01-22 14:35:00,
2013-01-22 06:45:00,40.8,4.8,30.15,WSW,242,0.0,0.0,22,0.00,,,0.00,Wunderground v.1.15,2013-01-22 14:45:00,
2013-01-22 06:50:00,40.5,4.6,30.15,WSW,242,0.0,0.0,22,0.00,,,0.00,Wunderground v.1.15,2013-01-22 14:50:00,
2013-01-22 07:00:00,39.9,5.0,30.16,WSW,242,0.0,0.0,23,0.00,,,0.00,Wunderground v.1.15,2013-01-22 15:00:00,
2013-01-22 07:05:00,39.8,4.9,30.16,WSW,242,0.0,0.0,23,0.00,,,0.00,Wunderground v.1.15,2013-01-22 15:05:00,
2013-01-22 07:15:00,40.5,5.5,30.16,WSW,242,0.0,0.0,23,0.00,,,0.00,Wunderground v.1.15,2013-01-22 15:15:00,
2013-01-22 07:25:00,39.5,2.7,30.16,NW,307,0.0,0.0,21,0.00,,,0.00,Wunderground v.1.15,2013-01-22 15:25:00,
2013-01-22 07:35:00,35.9,1.6,30.17,NW,307,0.0,0.0,23,0.00,,,0.00,Wunderground v.1.15,2013-01-22 15:35:00,
2013-01-22 07:45:00,33.5,1.4,30.17,NW,307,0.0,0.0,25,0.00,,,0.00,Wunderground v.1.15,2013-01-22 15:45:00,
2013-01-22 07:50:00,33.8,2.5,30.17,NW,307,0.0,0.0,26,0.00,,,0.00,Wunderground v.1.15,2013-01-22 15:50:00,
2013-01-22 08:00:00,35.3,3.8,30.18,NW,307,0.0,0.0,26,0.00,,,0.00,Wunderground v.1.15,2013-01-22 16:00:00,
2013-01-22 08:05:00,36.5,4.8,30.18,NW,307,0.0,0.0,26,0.00,,,0.00,Wunderground v.1.15,2013-01-22 16:05:00,
2013-01-22 08:15:00,39.5,5.6,30.18,NW,307,0.0,0.0,24,0.00,,,0.00,Wunderground v.1.15,2013-01-22 16:15:00,
2013-01-22 08:25:00,41.5,5.4,30.18,NW,307,0.0,0.0,22,0.00,,,0.00,Wunderground v.1.15,2013-01-22 16:25:00,
2013-01-22 08:35:00,42.8,5.5,30.18,NW,307,0.0,0.0,21,0.00,,,0.00,Wunderground v.1.15,2013-01-22 16:35:00,
2013-01-22 08:45:00,43.6,6.2,30.18,NW,307,0.0,0.0,21,0.00,,,0.00,Wunderground v.1.15,2013-01-22 16:45:00,
2013-01-22 08:50:00,44.8,6.1,30.18,West,265,0.0,0.0,20,0.00,,,0.00,Wunderground v.1.15,2013-01-22 16:50:00,
2013-01-22 09:00:00,47.1,6.9,30.18,West,280,1.0,2.0,19,0.00,,,0.00,Wunderground v.1.15,2013-01-22 17:00:00,
2013-01-22 09:05:00,47.9,6.4,30.18,WNW,284,0.0,2.0,18,0.00,,,0.00,Wunderground v.1.15,2013-01-22 17:05:00,
2013-01-22 09:15:00,49.1,6.1,30.18,WNW,283,0.0,0.0,17,0.00,,,0.00,Wunderground v.1.15,2013-01-22 17:15:00,
2013-01-22 09:25:00,49.6,5.2,30.18,WNW,284,0.0,0.0,16,0.00,,,0.00,Wunderground v.1.15,2013-01-22 17:25:00,
2013-01-22 09:30:00,50.1,6.9,30.18,WNW,284,0.0,0.0,17,0.00,,,0.00,Wunderground v.1.15,2013-01-22 17:30:00,
2013-01-22 09:40:00,51.0,7.6,30.18,WNW,284,0.0,0.0,17,0.00,,,0.00,Wunderground v.1.15,2013-01-22 17:40:00,
2013-01-22 09:45:00,51.4,8.0,30.18,WNW,284,0.0,0.0,17,0.00,,,0.00,Wunderground v.1.15,2013-01-22 17:45:00,
2013-01-22 09:55:00,52.8,7.8,30.18,WNW,303,0.0,1.0,16,0.00,,,0.00,Wunderground v.1.15,2013-01-22 17:55:00,
2013-01-22 10:00:00,53.5,8.3,30.18,WNW,303,0.0,0.0,16,0.00,,,0.00,Wunderground v.1.15,2013-01-22 18:00:00,
2013-01-22 10:05:00,54.1,5.9,30.18,WNW,294,0.0,0.0,14,0.00,,,0.00,Wunderground v.1.15,2013-01-22 18:05:00,
2013-01-22 10:10:00,54.5,6.2,30.18,NW,314,0.0,0.0,14,0.00,,,0.00,Wunderground v.1.15,2013-01-22 18:10:00,
2013-01-22 10:20:00,54.7,6.3,30.18,NW,314,0.0,0.0,14,0.00,,,0.00,Wunderground v.1.15,2013-01-22 18:20:00,
2013-01-22 10:30:00,55.3,6.8,30.17,NW,314,0.0,0.0,14,0.00,,,0.00,Wunderground v.1.15,2013-01-22 18:30:00,
2013-01-22 10:40:00,56.0,5.8,30.17,NW,314,0.0,0.0,13,0.00,,,0.00,Wunderground v.1.15,2013-01-22 18:40:00,
2013-01-22 10:45:00,55.9,7.3,30.17,NW,314,0.0,0.0,14,0.00,,,0.00,Wunderground v.1.15,2013-01-22 18:45:00,
2013-01-22 10:55:00,56.6,7.9,30.17,NW,314,0.0,0.0,14,0.00,,,0.00,Wunderground v.1.15,2013-01-22 18:55:00,
2013-01-22 11:05:00,57.5,6.9,30.16,NW,314,0.0,0.0,13,0.00,,,0.00,Wunderground v.1.15,2013-01-22 19:05:00,
2013-01-22 11:15:00,58.0,9.0,30.16,NW,316,0.0,0.0,14,0.00,,,0.00,Wunderground v.1.15,2013-01-22 19:15:00,
2013-01-22 11:25:00,58.4,9.3,30.16,NW,316,0.0,0.0,14,0.00,,,0.00,Wunderground v.1.15,2013-01-22 19:25:00,
2013-01-22 11:35:00,59.0,8.1,30.15,NW,317,0.0,0.0,13,0.00,,,0.00,Wunderground v.1.15,2013-01-22 19:35:00,
2013-01-22 11:40:00,59.5,8.5,30.15,NW,317,0.0,0.0,13,0.00,,,0.00,Wunderground v.1.15,2013-01-22 19:40:00,
2013-01-22 11:50:00,60.9,9.6,30.14,North,360,0.0,0.0,13,0.00,,,0.00,Wunderground v.1.15,2013-01-22 19:50:00,
2013-01-22 12:00:00,61.6,8.4,30.14,North,360,0.0,0.0,12,0.00,,,0.00,Wunderground v.1.15,2013-01-22 20:00:00,
2013-01-22 12:05:00,62.0,8.7,30.14,North,5,0.0,0.0,12,0.00,,,0.00,Wunderground v.1.15,2013-01-22 20:05:00,
2013-01-22 12:15:00,61.8,8.6,30.13,North,5,0.0,0.0,12,0.00,,,0.00,Wunderground v.1.15,2013-01-22 20:15:00,
2013-01-22 12:20:00,62.1,10.6,30.13,North,5,0.0,0.0,13,0.00,,,0.00,Wunderground v.1.15,2013-01-22 20:20:00,
2013-01-22 12:30:00,62.6,11.0,30.11,North,5,0.0,0.0,13,0.00,,,0.00,Wunderground v.1.15,2013-01-22 20:30:00,
2013-01-22 12:35:00,62.7,9.3,30.11,North,5,0.0,0.0,12,0.00,,,0.00,Wunderground v.1.15,2013-01-22 20:35:00,
2013-01-22 12:45:00,62.7,9.3,30.11,North,5,0.0,0.0,12,0.00,,,0.00,Wunderground v.1.15,2013-01-22 20:45:00,
2013-01-22 12:55:00,62.9,11.2,30.11,NNE,15,0.0,0.0,13,0.00,,,0.00,Wunderground v.1.15,2013-01-22 20:55:00,
2013-01-22 13:00:00,63.4,11.6,30.09,NNE,15,0.0,0.0,13,0.00,,,0.00,Wunderground v.1.15,2013-01-22 21:00:00,
2013-01-22 13:05:00,63.7,8.1,30.09,NE,51,0.0,0.0,11,0.00,,,0.00,Wunderground v.1.15,2013-01-22 21:05:00,
2013-01-22 13:10:00,63.9,12.0,30.09,NE,50,0.0,0.0,13,0.00,,,0.00,Wunderground v.1.15,2013-01-22 21:10:00,
2013-01-22 13:20:00,64.2,8.5,30.09,NE,51,0.0,0.0,11,0.00,,,0.00,Wunderground v.1.15,2013-01-22 21:20:00,
2013-01-22 13:25:00,64.5,10.7,30.09,NE,56,0.0,0.0,12,0.00,,,0.00,Wunderground v.1.15,2013-01-22 21:25:00,
2013-01-22 13:30:00,64.8,9.0,30.09,NE,54,0.0,0.0,11,0.00,,,0.00,Wunderground v.1.15,2013-01-22 21:30:00,
2013-01-22 13:40:00,65.5,11.5,30.09,ENE,60,0.0,3.0,12,0.00,,,0.00,Wunderground v.1.15,2013-01-22 21:40:00,
2013-01-22 13:45:00,65.3,9.4,30.08,East,82,1.0,3.0,11,0.00,,,0.00,Wunderground v.1.15,2013-01-22 21:45:00,
2013-01-22 13:55:00,65.5,9.5,30.08,NNE,28,1.0,2.0,11,0.00,,,0.00,Wunderground v.1.15,2013-01-22 21:55:00,
2013-01-22 14:05:00,65.6,9.6,30.07,ENE,68,1.0,1.0,11,0.00,,,0.00,Wunderground v.1.15,2013-01-22 22:05:00,
2013-01-22 14:15:00,65.8,11.7,30.07,North,5,1.0,2.0,12,0.00,,,0.00,Wunderground v.1.15,2013-01-22 22:15:00,
2013-01-22 14:25:00,65.8,9.7,30.07,ENE,62,1.0,3.0,11,0.00,,,0.00,Wunderground v.1.15,2013-01-22 22:25:00,
2013-01-22 14:30:00,65.6,9.6,30.07,NE,55,1.0,1.0,11,0.00,,,0.00,Wunderground v.1.15,2013-01-22 22:30:00,
2013-01-22 14:40:00,65.6,9.6,30.07,ENE,63,1.0,1.0,11,0.00,,,0.00,Wunderground v.1.15,2013-01-22 22:40:00,
2013-01-22 14:45:00,65.5,9.5,30.07,ENE,63,0.0,1.0,11,0.00,,,0.00,Wunderground v.1.15,2013-01-22 22:45:00,
2013-01-22 14:55:00,65.0,11.1,30.07,NNE,19,0.0,0.0,12,0.00,,,0.00,Wunderground v.1.15,2013-01-22 22:55:00,
2013-01-22 15:05:00,64.7,8.9,30.06,NE,47,0.0,0.0,11,0.00,,,0.00,Wunderground v.1.15,2013-01-22 23:05:00,
2013-01-22 15:15:00,65.2,11.2,30.07,East,84,0.0,0.0,12,0.00,,,0.00,Wunderground v.1.15,2013-01-22 23:15:00,
2013-01-22 15:25:00,64.8,9.0,30.07,NNE,22,0.0,0.0,11,0.00,,,0.00,Wunderground v.1.15,2013-01-22 23:25:00,
2013-01-22 15:30:00,64.5,10.7,30.07,NNE,25,0.0,0.0,12,0.00,,,0.00,Wunderground v.1.15,2013-01-22 23:30:00,
2013-01-22 15:40:00,64.2,10.5,30.07,North,9,0.0,0.0,12,0.00,,,0.00,Wunderground v.1.15,2013-01-22 23:40:00,
2013-01-22 15:45:00,64.0,10.3,30.07,NE,35,0.0,0.0,12,0.00,,,0.00,Wunderground v.1.15,2013-01-22 23:45:00,
2013-01-22 15:50:00,63.9,10.2,30.07,NNE,19,0.0,0.0,12,0.00,,,0.00,Wunderground v.1.15,2013-01-22 23:50:00,
2013-01-22 16:00:00,63.7,10.1,30.07,NNE,15,0.0,0.0,12,0.00,,,0.00,Wunderground v.1.15,2013-01-23 00:00:00,
2013-01-22 16:05:00,63.5,9.9,30.07,NNE,15,0.0,0.0,12,0.00,,,0.00,Wunderground v.1.15,2013-01-23 00:05:00,
2013-01-22 16:15:00,63.7,10.1,30.07,NNE,15,0.0,0.0,12,0.00,,,0.00,Wunderground v.1.15,2013-01-23 00:15:00,
2013-01-22 16:20:00,63.7,10.1,30.07,NNE,15,0.0,0.0,12,0.00,,,0.00,Wunderground v.1.15,2013-01-23 00:20:00,
2013-01-22 16:30:00,63.4,9.8,30.07,NNE,15,0.0,0.0,12,0.00,,,0.00,Wunderground v.1.15,2013-01-23 00:30:00,
2013-01-22 16:40:00,62.9,9.4,30.07,NNE,15,0.0,0.0,12,0.00,,,0.00,Wunderground v.1.15,2013-01-23 00:40:00,
2013-01-22 16:45:00,62.4,10.8,30.07,NNE,15,0.0,0.0,13,0.00,,,0.00,Wunderground v.1.15,2013-01-23 00:45:00,
2013-01-22 16:55:00,61.0,11.4,30.07,NNE,15,0.0,0.0,14,0.00,,,0.00,Wunderground v.1.15,2013-01-23 00:55:00,
2013-01-22 17:00:00,60.4,10.9,30.06,NNE,15,0.0,0.0,14,0.00,,,0.00,Wunderground v.1.15,2013-01-23 01:00:00,
2013-01-22 17:05:00,59.6,10.3,30.06,NNE,15,0.0,0.0,14,0.00,,,0.00,Wunderground v.1.15,2013-01-23 01:05:00,
2013-01-22 17:15:00,58.7,9.5,30.06,NNE,15,0.0,0.0,14,0.00,,,0.00,Wunderground v.1.15,2013-01-23 01:15:00,
2013-01-22 17:20:00,58.1,9.1,30.06,NNE,15,0.0,0.0,14,0.00,,,0.00,Wunderground v.1.15,2013-01-23 01:20:00,
2013-01-22 17:30:00,57.0,9.7,30.07,NNE,15,0.0,0.0,15,0.00,,,0.00,Wunderground v.1.15,2013-01-23 01:30:00,
2013-01-22 17:40:00,55.7,8.7,30.07,NNE,15,0.0,0.0,15,0.00,,,0.00,Wunderground v.1.15,2013-01-23 01:40:00,
2013-01-22 17:45:00,55.1,8.2,30.07,NNE,15,0.0,0.0,15,0.00,,,0.00,Wunderground v.1.15,2013-01-23 01:45:00,
2013-01-22 17:55:00,53.6,7.0,30.07,NNE,15,0.0,0.0,15,0.00,,,0.00,Wunderground v.1.15,2013-01-23 01:55:00,
2013-01-22 18:05:00,52.9,7.8,30.08,NNE,15,0.0,0.0,16,0.00,,,0.00,Wunderground v.1.15,2013-01-23 02:05:00,
2013-01-22 18:15:00,52.5,7.5,30.08,NNE,15,0.0,0.0,16,0.00,,,0.00,Wunderground v.1.15,2013-01-23 02:15:00,
2013-01-22 18:20:00,52.5,7.5,30.08,NNE,15,0.0,0.0,16,0.00,,,0.00,Wunderground v.1.15,2013-01-23 02:20:00,
2013-01-22 18:30:00,52.3,7.4,30.08,NNE,15,0.0,0.0,16,0.00,,,0.00,Wunderground v.1.15,2013-01-23 02:30:00,
2013-01-22 18:35:00,52.2,7.3,30.08,NNE,15,0.0,0.0,16,0.00,,,0.00,Wunderground v.1.15,2013-01-23 02:35:00,
2013-01-22 18:45:00,52.2,7.3,30.08,NNE,17,0.0,0.0,16,0.00,,,0.00,Wunderground v.1.15,2013-01-23 02:45:00,
2013-01-22 18:55:00,52.2,7.3,30.08,NNE,17,0.0,0.0,16,0.00,,,0.00,Wunderground v.1.15,2013-01-23 02:55:00,
2013-01-22 19:00:00,52.0,7.1,30.08,NNE,17,0.0,0.0,16,0.00,,,0.00,Wunderground v.1.15,2013-01-23 03:00:00,
2013-01-22 19:05:00,52.0,7.1,30.08,NNE,17,0.0,0.0,16,0.00,,,0.00,Wunderground v.1.15,2013-01-23 03:05:00,
2013-01-22 19:15:00,51.9,7.0,30.08,NNE,17,0.0,0.0,16,0.00,,,0.00,Wunderground v.1.15,2013-01-23 03:15:00,
2013-01-22 19:20:00,51.7,6.9,30.08,NNE,17,0.0,0.0,16,0.00,,,0.00,Wunderground v.1.15,2013-01-23 03:20:00,
2013-01-22 19:30:00,51.4,6.6,30.08,NNE,18,0.0,0.0,16,0.00,,,0.00,Wunderground v.1.15,2013-01-23 03:30:00,
2013-01-22 19:35:00,51.3,6.5,30.08,NNE,21,0.0,0.0,16,0.00,,,0.00,Wunderground v.1.15,2013-01-23 03:35:00,
2013-01-22 19:45:00,51.6,6.8,30.09,NNE,21,0.0,0.0,16,0.00,,,0.00,Wunderground v.1.15,2013-01-23 03:45:00,
2013-01-22 19:55:00,52.2,7.3,30.09,NNE,21,0.0,0.0,16,0.00,,,0.00,Wunderground v.1.15,2013-01-23 03:55:00,
2013-01-22 20:00:00,52.2,7.3,30.09,NNE,21,0.0,0.0,16,0.00,,,0.00,Wunderground v.1.15,2013-01-23 04:00:00,
2013-01-22 20:05:00,52.3,7.4,30.09,NNE,21,0.0,0.0,16,0.00,,,0.00,Wunderground v.1.15,2013-01-23 04:05:00,
2013-01-22 20:15:00,52.6,7.6,30.10,NNE,26,0.0,0.0,16,0.00,,,0.00,Wunderground v.1.15,2013-01-23 04:15:00,
2013-01-22 20:20:00,52.6,7.6,30.10,NNE,26,0.0,0.0,16,0.00,,,0.00,Wunderground v.1.15,2013-01-23 04:20:00,
2013-01-22 20:30:00,52.3,7.4,30.10,NNE,26,0.0,0.0,16,0.00,,,0.00,Wunderground v.1.15,2013-01-23 04:30:00,
2013-01-22 20:35:00,51.9,7.0,30.10,NNE,26,0.0,0.0,16,0.00,,,0.00,Wunderground v.1.15,2013-01-23 04:35:00,
2013-01-22 20:40:00,51.7,6.9,30.10,NNE,26,0.0,0.0,16,0.00,,,0.00,Wunderground v.1.15,2013-01-23 04:40:00,
2013-01-22 20:50:00,51.6,6.8,30.10,NNE,26,0.0,0.0,16,0.00,,,0.00,Wunderground v.1.15,2013-01-23 04:50:00,
2013-01-22 21:05:00,50.1,6.9,30.10,NNE,26,0.0,0.0,17,0.00,,,0.00,Wunderground v.1.15,2013-01-23 05:05:00,
2013-01-22 21:10:00,49.9,6.7,30.10,NNE,26,0.0,0.0,17,0.00,,,0.00,Wunderground v.1.15,2013-01-23 05:10:00,
2013-01-22 21:20:00,49.2,6.2,30.10,NNE,26,0.0,0.0,17,0.00,,,0.00,Wunderground v.1.15,2013-01-23 05:20:00,
2013-01-22 21:25:00,48.8,7.1,30.10,NNE,26,0.0,0.0,18,0.00,,,0.00,Wunderground v.1.15,2013-01-23 05:25:00,
2013-01-22 21:30:00,48.2,6.6,30.10,NNE,26,0.0,0.0,18,0.00,,,0.00,Wunderground v.1.15,2013-01-23 05:30:00,
2013-01-22 21:35:00,47.6,6.1,30.10,NNE,26,0.0,0.0,18,0.00,,,0.00,Wunderground v.1.15,2013-01-23 05:35:00,
2013-01-22 21:45:00,46.5,6.4,30.10,NNE,26,0.0,0.0,19,0.00,,,0.00,Wunderground v.1.15,2013-01-23 05:45:00,
2013-01-22 21:55:00,46.1,6.0,30.10,NNE,26,0.0,0.0,19,0.00,,,0.00,Wunderground v.1.15,2013-01-23 05:55:00,
2013-01-22 22:00:00,45.8,5.8,30.10,NNE,26,0.0,0.0,19,0.00,,,0.00,Wunderground v.1.15,2013-01-23 06:00:00,
2013-01-22 22:05:00,45.5,6.7,30.10,NNE,26,0.0,0.0,20,0.00,,,0.00,Wunderground v.1.15,2013-01-23 06:05:00,
2013-01-22 22:15:00,45.4,6.6,30.11,NNE,26,0.0,0.0,20,0.00,,,0.00,Wunderground v.1.15,2013-01-23 06:15:00,
2013-01-22 22:20:00,44.5,5.8,30.11,WNW,302,0.0,0.0,20,0.00,,,0.00,Wunderground v.1.15,2013-01-23 06:20:00,
2013-01-22 22:30:00,46.1,6.0,30.11,WNW,301,0.0,0.0,19,0.00,,,0.00,Wunderground v.1.15,2013-01-23 06:30:00,
2013-01-22 22:35:00,46.4,6.3,30.11,WNW,301,0.0,0.0,19,0.00,,,0.00,Wunderground v.1.15,2013-01-23 06:35:00,
2013-01-22 22:45:00,46.0,6.0,30.12,WNW,301,0.0,0.0,19,0.00,,,0.00,Wunderground v.1.15,2013-01-23 06:45:00,
2013-01-22 22:55:00,44.6,5.9,30.12,NW,304,0.0,0.0,20,0.00,,,0.00,Wunderground v.1.15,2013-01-23 06:55:00,
2013-01-22 23:00:00,44.9,6.2,30.11,NW,304,0.0,0.0,20,0.00,,,0.00,Wunderground v.1.15,2013-01-23 07:00:00,
2013-01-22 23:05:00,45.8,5.8,30.11,NW,304,0.0,0.0,19,0.00,,,0.00,Wunderground v.1.15,2013-01-23 07:05:00,
2013-01-22 23:10:00,46.1,6.0,30.11,NW,304,0.0,0.0,19,0.00,,,0.00,Wunderground v.1.15,2013-01-23 07:10:00,
2013-01-22 23:20:00,44.6,5.9,30.12,NW,310,0.0,0.0,20,0.00,,,0.00,Wunderground v.1.15,2013-01-23 07:20:00,
2013-01-22 23:30:00,44.2,5.6,30.11,NNW,329,0.0,0.0,20,0.00,,,0.00,Wunderground v.1.15,2013-01-23 07:30:00,
2013-01-22 23:35:00,44.5,5.8,30.11,NNW,329,0.0,0.0,20,0.00,,,0.00,Wunderground v.1.15,2013-01-23 07:35:00,
2013-01-22 23:45:00,44.5,6.9,30.11,NNW,329,0.0,0.0,21,0.00,,,0.00,Wunderground v.1.15,2013-01-23 07:45:00,
2013-01-22 23:50:00,44.5,5.8,30.11,NNW,329,0.0,0.0,20,0.00,,,0.00,Wunderground v.1.15,2013-01-23 07:50:00,